495P/Christensen (2015)

Japanese version
Home page
Updated on November 26, 2024

---------------------------------------------------------------------

* Profile

Designation 495P/2016 A2
Discovery Date January 2, 2016
Magnitude 19.6 mag
Discoverer E. J. Christensen (Mount Lemmon)

* Pictures

* Orbital Elements

                    Epoch = 2015 June 27.0 TT
     T = 2015 June 26.00242 TT        Peri. = 141.06082
     e = 0.2748442                    Node  = 291.81136 2000.0
     q = 3.4323713 AU                 Incl. =  26.37371
       a =  4.7332882 AU   n = 0.09571052   P =  10.30 years

* Magnitudes Graph

        m1 = 12.0 + 5 log d + 10.0 log r

---------------------------------------------------------------------

The orbital elements are printed on CBET 5463.
The magnitudes graphs are made with Comet for Windows.

---------------------------------------------------------------------

Copyright(C) Seiichi Yoshida (comet@aerith.net). All rights reserved.